Wind_Speed
45 45 46 46 46 46 46 47 45 45 45 44 44 44 44 43 43 43 42 40 39 40 40 39 39 38 38 37 36 35 34 34 34 34 35 36 36 36 36 37 36 36 36
46 45 45 45 45 46 46 46 45 45 45 45 44 43 44 44 45 45 44 43 41 41 41 40 39 38 38 36 36 36 36 35 35 35 36 36 37 37 38 38 38 38 39
44 44 45 46 44 45 45 45 44 45 45 45 45 44 43 43 44 44 45 46 45 43 42 41 41 40 38 38 37 37 37 36 36 36 37 38 38 38 38 38 39 39 40
42 43 44 46 45 44 44 44 43 44 44 45 44 44 43 43 43 44 45 45 46 45 43 42 41 40 39 39 39 39 38 38 37 38 38 39 40 41 40 40 40 41 41
41 42 43 43 44 44 45 45 44 44 44 44 43 43 43 42 42 43 44 44 44 43 44 43 43 42 41 41 40 39 39 39 38 39 39 40 41 41 42 41 41 42 43
41 40 41 42 43 44 45 45 46 44 43 43 43 44 44 43 42 42 42 43 44 44 44 44 43 43 42 42 41 40 40 40 39 40 40 41 42 43 43 42 42 43 43
40 40 40 40 41 42 43 43 44 43 43 44 44 45 44 43 42 42 42 43 45 45 45 45 44 43 43 43 42 41 41 40 40 40 41 42 43 44 44 44 45 44 44
37 38 39 39 40 41 42 42 41 42 43 43 44 44 43 43 42 42 42 43 45 46 45 45 44 44 44 44 43 42 42 42 42 42 42 42 43 44 45 46 46 46 45
35 36 37 39 40 40 41 41 41 41 41 41 42 42 41 41 41 42 43 44 45 46 46 46 44 44 44 45 44 44 43 43 43 43 43 44 45 47 47 47 48 47 47
33 34 35 37 38 40 40 39 40 40 40 41 41 41 40 40 41 41 42 43 44 45 45 45 44 45 45 45 45 45 44 44 44 44 45 45 46 47 48 47 47 47 47
31 32 34 35 36 38 39 38 38 39 39 40 40 41 40 41 41 41 42 42 41 42 43 44 44 45 45 46 46 46 46 46 45 46 46 47 47 48 47 47 47 47 46
28 30 32 33 35 36 37 38 38 38 38 39 38 38 40 41 41 41 41 41 42 42 42 43 44 45 45 46 46 47 47 46 46 47 47 47 48 48 47 47 46 46 46
26 27 30 31 34 35 36 37 37 37 37 39 38 38 38 40 40 41 42 42 43 42 42 42 43 44 45 46 46 47 47 47 47 47 47 48 49 49 48 48 47 47 47
24 26 28 29 31 33 34 35 36 37 38 38 38 39 39 39 40 41 42 42 42 42 42 42 43 44 44 45 45 46 46 46 46 47 48 48 48 48 47 47 47 47 47
25 25 26 28 30 31 31 33 35 36 37 38 39 39 39 40 40 40 40 40 41 41 41 41 42 42 43 43 44 45 46 46 47 47 47 48 48 46 46 45 46 46 47
26 25 25 26 28 29 30 31 33 34 35 36 37 38 38 38 39 39 40 40 40 41 41 41 41 40 41 41 42 44 44 46 47 47 47 47 47 46 45 45 45 45 46
25 26 26 26 28 28 29 30 31 32 33 34 35 36 37 37 37 38 39 39 39 40 41 41 40 40 40 41 42 42 44 45 45 46 46 45 45 45 45 45 44 44 45
25 26 27 27 28 28 28 29 30 32 32 33 35 36 36 37 37 37 37 37 38 40 40 41 41 41 41 42 43 44 44 44 43 44 44 42 42 42 42 41 41 42 43
25 26 27 28 28 28 28 29 30 31 32 33 34 34 35 36 37 37 37 38 39 38 39 40 41 42 42 42 43 43 43 42 41 41 40 41 40 40 40 39 39 40 40
25 25 27 28 29 29 29 29 31 31 32 33 33 34 35 37 38 38 39 39 39 39 39 40 41 41 40 41 41 42 41 40 39 37 37 37 38 39 39 39 40 39 39
25 25 26 28 29 30 30 29 30 31 31 31 33 34 35 36 38 39 40 40 39 40 41 41 41 41 40 40 40 40 39 37 36 35 35 35 35 36 37 38 38 38 39
25 26 27 28 28 29 29 29 30 30 31 31 32 33 34 35 37 39 39 39 39 40 41 41 40 39 39 39 39 38 36 35 35 33 33 33 34 34 35 35 35 36 37
26 25 26 26 27 28 28 29 29 29 30 31 32 33 33 34 36 36 36 37 38 38 39 39 38 37 37 37 36 35 34 34 33 33 32 32 33 33 33 33 34 34 35
26 26 26 26 27 28 28 28 28 29 29 30 31 32 33 34 34 35 36 36 37 37 37 37 36 36 36 35 34 33 33 33 32 31 31 32 32 33 34 33 33 34 33
26 26 26 26 26 27 27 27 27 28 29 31 31 32 33 34 34 35 36 36 36 36 36 35 35 34 34 33 33 32 32 32 31 31 31 32 32 32 33 33 34 33 33
25 25 25 25 26 26 27 27 27 28 29 31 31 32 33 34 34 34 34 34 34 34 34 34 33 32 32 32 31 31 32 31 31 31 31 31 31 31 31 32 33 32 32
Wind_Direction
248 249 248 248 247 247 248 249 249 248 248 248 250 250 250 250 250 248 247 248 250 251 252 254 256 257 258 258 259 261 263 265 267 268 269 270 271 272 273 275 277 280 282
248 248 248 248 247 246 247 249 249 248 248 248 249 250 250 250 250 248 247 247 249 250 251 253 254 256 257 258 259 261 264 266 268 269 269 270 271 272 274 275 277 279 282
247 246 245 246 246 246 246 248 249 247 247 247 247 248 249 249 249 248 248 247 247 249 250 251 253 255 256 258 260 262 264 266 268 269 271 272 273 274 274 276 277 279 281
246 247 246 246 246 245 245 247 248 247 246 247 247 248 249 249 249 248 247 246 246 247 249 251 253 255 256 258 260 262 264 266 268 270 272 274 275 275 276 275 277 279 281
246 247 246 246 245 245 245 247 248 247 246 247 247 248 248 249 249 248 247 246 247 247 249 251 253 254 256 257 260 262 263 265 268 270 273 276 276 277 277 276 277 279 280
245 245 245 245 244 244 244 246 247 246 246 247 247 247 247 247 247 247 248 248 248 249 249 251 252 253 255 258 260 262 263 266 268 271 273 276 277 277 278 278 278 279 280
245 245 245 244 244 244 243 245 246 245 245 246 247 247 248 247 247 247 247 247 248 249 249 250 253 254 255 257 259 261 263 266 269 271 274 277 278 278 278 279 280 279 279
245 244 244 244 245 244 244 245 245 244 245 246 246 247 247 247 247 248 247 247 248 248 249 250 252 253 255 257 259 262 264 266 269 271 274 276 277 278 277 278 280 280 279
246 245 244 244 245 245 244 245 244 244 245 246 245 245 246 246 247 248 248 248 247 248 249 250 252 254 256 258 260 262 265 267 269 271 274 275 276 278 278 279 280 280 281
247 246 246 246 245 245 245 246 245 244 245 246 245 245 246 247 247 247 248 248 248 249 251 251 253 254 257 259 261 263 265 267 269 271 273 274 276 277 278 278 278 280 281
250 248 247 247 246 246 246 246 243 243 243 244 246 246 246 246 247 248 249 249 250 252 252 252 254 255 258 260 262 264 266 268 270 272 273 275 276 277 277 277 278 278 280
251 250 248 248 247 247 247 246 243 242 242 244 246 246 245 245 247 249 250 251 253 254 253 255 255 257 259 261 263 264 266 268 270 271 273 275 277 277 276 276 276 278 280
255 253 252 249 248 248 247 246 243 242 243 245 246 247 246 245 248 249 251 253 254 254 255 256 258 259 261 262 263 265 267 268 269 271 273 275 277 276 275 275 275 277 278
258 256 252 250 249 249 247 245 245 243 244 245 246 247 247 247 248 249 251 253 253 255 256 258 259 261 262 263 264 266 267 268 270 272 274 275 276 276 275 274 275 276 279
258 257 255 253 249 248 246 246 246 244 244 246 247 248 249 249 249 250 251 252 253 255 257 259 261 262 264 265 266 266 268 270 271 273 275 276 276 275 275 274 275 276 278
259 258 257 255 251 251 250 249 248 247 247 247 248 249 250 250 250 250 250 252 254 256 257 258 260 262 264 266 267 268 269 271 272 273 274 276 275 275 275 275 275 276 279
260 258 257 256 253 252 254 253 251 251 251 249 249 250 250 250 250 251 252 253 254 255 256 258 259 262 264 265 267 269 272 274 273 272 273 274 274 274 273 273 275 276 277
263 262 259 257 255 254 256 253 250 251 251 250 249 249 250 250 251 253 253 254 255 257 258 258 259 261 263 266 269 271 274 275 274 273 271 272 273 272 272 273 274 276 279
262 261 262 261 259 257 256 253 250 250 250 251 251 250 250 251 253 255 254 255 257 258 259 259 261 263 265 268 270 271 273 273 272 272 271 271 272 271 272 272 274 278 281
266 263 261 263 263 260 258 255 251 251 251 253 253 253 253 254 256 256 256 258 259 260 262 264 266 266 266 268 270 271 271 271 271 273 274 273 273 273 274 274 277 279 281
268 266 264 265 265 262 260 259 256 254 255 255 256 257 257 258 259 259 259 260 262 263 264 266 267 267 267 269 271 270 270 270 270 272 273 274 275 276 276 276 277 279 281
271 270 269 269 268 265 262 260 259 257 257 257 258 259 261 262 262 262 261 262 264 265 266 267 267 267 267 268 268 268 268 267 269 270 271 273 275 277 278 277 277 280 281
272 271 270 270 270 269 266 262 259 257 257 258 259 261 264 265 265 265 265 264 265 266 267 266 266 265 266 266 266 266 264 265 267 267 270 272 273 276 277 278 279 281 282
271 270 271 271 270 269 267 265 263 262 262 262 263 265 266 267 267 267 266 266 266 267 267 267 266 264 265 265 264 263 263 264 265 267 269 271 273 275 276 276 278 281 282
272 271 270 270 270 269 267 266 265 265 266 267 268 269 269 268 267 265 265 265 265 266 266 266 266 265 263 261 260 261 262 263 265 267 269 272 273 273 275 276 277 279 282
273 272 271 270 268 269 270 269 269 270 271 270 270 272 271 269 267 266 266 265 265 265 265 266 265 262 259 258 259 259 262 263 266 268 270 271 274 276 276 278 278 278 281
Height
5681 5683 5686 5689 5692 5695 5698 5702 5705 5709 5712 5716 5719 5722 5725 5728 5730 5733 5737 5739 5742 5744 5747 5749 5751 5753 5755 5757 5758 5759 5761 5762 5763 5764 5765 5766 5767 5768 5768 5769 5769 5769 5768
5668 5671 5675 5678 5681 5684 5687 5690 5693 5697 5701 5704 5708 5711 5714 5717 5720 5723 5727 5729 5732 5735 5738 5740 5743 5745 5746 5748 5750 5752 5753 5754 5755 5756 5757 5758 5759 5759 5760 5760 5761 5760 5759
5656 5660 5663 5667 5670 5673 5677 5680 5682 5685 5689 5693 5696 5699 5702 5705 5709 5712 5716 5719 5722 5725 5729 5731 5734 5736 5738 5740 5742 5743 5745 5746 5747 5747 5748 5749 5750 5751 5751 5751 5752 5751 5750
5645 5648 5652 5656 5659 5663 5666 5669 5672 5674 5678 5681 5684 5688 5691 5695 5699 5702 5705 5709 5712 5715 5719 5722 5724 5727 5729 5731 5733 5735 5736 5737 5738 5739 5739 5740 5740 5740 5741 5742 5742 5741 5740
5634 5638 5641 5644 5648 5651 5655 5658 5661 5664 5667 5670 5674 5677 5680 5684 5688 5691 5694 5698 5702 5705 5709 5712 5715 5718 5720 5722 5724 5726 5727 5728 5729 5730 5730 5730 5730 5729 5730 5731 5732 5731 5731
5624 5628 5631 5634 5637 5640 5644 5647 5650 5653 5656 5660 5663 5667 5670 5674 5677 5680 5684 5688 5691 5695 5699 5702 5705 5708 5710 5713 5714 5716 5717 5719 5720 5720 5721 5720 5720 5720 5719 5720 5720 5720 5720
5614 5618 5621 5624 5627 5630 5633 5636 5639 5642 5645 5649 5652 5656 5659 5663 5667 5670 5674 5678 5681 5685 5688 5692 5695 5698 5700 5702 5704 5706 5707 5709 5710 5710 5710 5710 5710 5709 5709 5708 5708 5708 5709
5604 5608 5611 5614 5617 5620 5622 5625 5628 5631 5635 5638 5642 5645 5649 5653 5656 5660 5664 5667 5671 5674 5678 5681 5685 5687 5690 5692 5694 5696 5697 5698 5699 5700 5700 5700 5699 5698 5697 5696 5695 5696 5696
5595 5599 5602 5604 5607 5609 5612 5615 5617 5621 5624 5628 5631 5635 5638 5642 5646 5650 5653 5657 5660 5664 5668 5671 5674 5677 5679 5681 5683 5685 5687 5688 5688 5689 5689 5688 5688 5687 5686 5685 5684 5684 5683
5587 5589 5592 5594 5597 5599 5601 5604 5606 5610 5614 5617 5621 5625 5629 5633 5637 5640 5644 5647 5651 5654 5657 5661 5663 5666 5669 5671 5673 5674 5676 5676 5677 5677 5677 5677 5677 5676 5675 5674 5673 5672 5671
5578 5581 5583 5585 5587 5589 5591 5594 5597 5600 5604 5608 5611 5616 5620 5624 5628 5631 5635 5638 5641 5644 5647 5650 5653 5655 5658 5660 5662 5663 5664 5665 5666 5666 5666 5666 5665 5664 5663 5662 5661 5660 5659
5571 5572 5574 5576 5578 5580 5582 5585 5588 5591 5595 5598 5602 5606 5610 5614 5618 5622 5625 5628 5632 5634 5637 5640 5642 5645 5647 5649 5650 5652 5653 5653 5654 5654 5654 5654 5653 5652 5651 5650 5650 5649 5647
5564 5565 5566 5568 5570 5572 5574 5577 5579 5583 5586 5590 5594 5597 5601 5605 5608 5612 5616 5619 5622 5625 5628 5630 5632 5635 5636 5638 5639 5640 5641 5642 5642 5642 5642 5641 5640 5639 5639 5638 5638 5637 5636
5558 5559 5560 5561 5563 5564 5567 5569 5571 5574 5578 5582 5585 5589 5592 5595 5599 5602 5606 5609 5612 5615 5618 5620 5622 5624 5626 5627 5628 5628 5629 5630 5630 5630 5630 5629 5628 5627 5626 5626 5626 5625 5624
5552 5553 5553 5555 5556 5558 5559 5561 5564 5567 5570 5573 5576 5580 5583 5586 5589 5593 5596 5599 5602 5605 5608 5610 5612 5613 5615 5616 5617 5617 5617 5618 5618 5618 5618 5617 5616 5615 5614 5614 5614 5613 5613
5547 5547 5548 5549 5550 5551 5553 5555 5557 5559 5561 5565 5568 5571 5574 5577 5580 5583 5586 5589 5592 5595 5597 5599 5601 5603 5604 5605 5605 5606 5606 5606 5606 5606 5605 5604 5603 5603 5603 5602 5602 5602 5601
5542 5542 5542 5543 5544 5544 5545 5547 5550 5552 5554 5557 5559 5562 5565 5568 5571 5574 5577 5580 5582 5585 5587 5589 5591 5592 5593 5594 5594 5594 5594 5594 5594 5593 5593 5592 5591 5591 5591 5591 5591 5591 5590
5536 5536 5536 5536 5537 5538 5539 5540 5542 5544 5547 5549 5552 5554 5557 5559 5563 5565 5568 5570 5573 5575 5577 5579 5580 5582 5583 5583 5583 5583 5583 5583 5582 5581 5581 5580 5580 5580 5580 5580 5580 5580 5579
5530 5530 5530 5530 5530 5530 5532 5533 5535 5537 5539 5541 5544 5546 5548 5551 5554 5556 5559 5561 5563 5565 5566 5568 5569 5571 5572 5572 5572 5572 5572 5572 5571 5570 5570 5570 5570 5570 5570 5570 5570 5570 5569
5524 5524 5524 5524 5524 5524 5524 5526 5528 5529 5532 5534 5536 5538 5540 5542 5544 5547 5549 5551 5552 5554 5555 5556 5558 5559 5560 5561 5561 5560 5561 5561 5561 5560 5560 5560 5560 5560 5560 5560 5560 5560 5559
5518 5517 5517 5517 5517 5516 5517 5518 5520 5522 5524 5526 5527 5529 5531 5533 5535 5537 5539 5540 5541 5543 5544 5545 5546 5547 5549 5549 5549 5549 5550 5551 5551 5551 5551 5551 5551 5550 5550 5550 5550 5549 5549
5511 5510 5510 5510 5510 5509 5510 5511 5513 5514 5516 5517 5519 5520 5522 5523 5524 5526 5528 5529 5530 5532 5533 5534 5535 5536 5537 5538 5538 5539 5539 5540 5541 5542 5542 5542 5542 5542 5541 5541 5540 5540 5539
5504 5504 5503 5503 5503 5503 5503 5504 5505 5506 5508 5509 5510 5511 5512 5513 5514 5516 5517 5518 5520 5521 5522 5523 5524 5525 5526 5527 5528 5529 5530 5531 5532 5533 5533 5533 5533 5533 5533 5532 5531 5530 5529
5497 5497 5497 5497 5497 5497 5496 5497 5498 5499 5500 5501 5502 5502 5503 5504 5505 5505 5507 5508 5509 5510 5511 5512 5513 5515 5516 5517 5518 5519 5520 5522 5523 5524 5524 5525 5525 5525 5524 5523 5522 5521 5520
5490 5489 5489 5489 5490 5490 5490 5490 5491 5491 5492 5493 5493 5493 5494 5494 5495 5495 5496 5498 5499 5500 5501 5502 5503 5504 5506 5507 5508 5510 5512 5513 5514 5515 5516 5516 5516 5516 5515 5514 5513 5512 5511
5482 5482 5482 5482 5482 5483 5483 5483 5483 5483 5484 5484 5484 5484 5484 5484 5484 5485 5486 5487 5488 5489 5490 5491 5493 5494 5496 5497 5499 5501 5503 5504 5506 5507 5507 5508 5508 5507 5506 5506 5505 5503 5503